Weather History for Mmabatho, South Africa

Change the Weather History Date:

Thursday, December 13, 2012

  Actual Average Record
Temperature  
Mean Temperature 62 °F -  
Max Temperature 68 °F - - ()
Min Temperature 57 °F - - ()
Degree Days  
Heating Degree Days 2    
Growing Degree Days 12 (Base 50)    
Moisture  
Dew Point 55 °F    
Average Humidity 78    
Maximum Humidity 94    
Minimum Humidity 56    
Precipitation  
Precipitation 0.00 in - - ()
Sea Level Pressure  
Sea Level Pressure 30.12 in    
Wind  
Wind Speed 7 mph ()    
Max Wind Speed 14 mph    
Max Gust Speed -    
Visibility 8.2 miles    
Events Rain    
T = Trace of Precipitation, MM = Missing Value Source: Averaged Metar Reports

Daily Weather History Graph

Daily Weather History Graph

Search for Another Location

Airport:

Trip Planner

Search our weather history database for the weather conditions in past years. The results will help you decide how hot, cold, wet, or windy it might be!

Date:

Astronomy

Dec. 13, 2012 Rise Set
Actual Time 5:20 AM SAST 7:04 PM SAST
Civil Twilight 4:54 AM SAST 7:30 PM SAST
Nautical Twilight 4:22 AM SAST 8:01 PM SAST
Astronomical Twilight 3:50 AM SAST 8:34 PM SAST
Moon 5:16 AM SAST (12/13) 7:15 PM SAST (12/13)
Length of Visible Light 14h 36m
Length of Day
13h 44m
Waxing Crescent, 0% of the Moon is Illuminated
Dec 13
Waxing Crescent
Dec 20
First Quarter
Dec 28
Full
Jan 5
Last Quarter
Jan 11
New

Hourly Weather History & Observations

Time (SAST) Temp. Dew Point Humidity Pressure Visibility Wind Dir Wind Speed Gust Speed Precip Events Conditions
12:00 AM 60.8 °F 53.6 °F 77% 30.15 in - NNE 5.8 mph - N/A   Unknown
1:00 AM 59.0 °F 53.6 °F 82% 30.12 in - NNE 6.9 mph - N/A   Unknown
2:00 AM 60 °F 54 °F 74%  in - NNE 6.9 mph - -  
2:00 AM 59.0 °F 53.6 °F 82% 30.12 in - NNE 5.8 mph - N/A   Unknown
3:00 AM 57.2 °F 53.6 °F 88% 30.12 in - NNE 6.9 mph - N/A   Unknown
4:00 AM 57.2 °F 53.6 °F 88% 30.12 in - NNE 5.8 mph - N/A   Unknown
5:00 AM 58 °F 55 °F 86%  in 12 mi NNE 9.2 mph - - Rain Light Drizzle
5:00 AM 57.2 °F 53.6 °F 88% 30.12 in 6.2 mi NNE 9.2 mph - N/A   Light Drizzle
6:00 AM 57.2 °F 53.6 °F 88% 30.15 in 6.2 mi NNE 10.4 mph - N/A   Light Drizzle
6:18 AM 57.2 °F 53.6 °F 88% 30.15 in 5.6 mi NNE 8.1 mph - N/A Rain Light Rain Showers
7:00 AM 57.2 °F 53.6 °F 88% 30.15 in 5.0 mi NNE 6.9 mph - N/A Rain Light Rain Showers
8:00 AM 58 °F 56 °F 89%  in 7 mi NNE 6.9 mph - - Rain Light Drizzle
8:00 AM 57.2 °F 55.4 °F 94% 30.18 in 6.2 mi NNE 6.9 mph - N/A   Overcast
9:00 AM 60.8 °F 55.4 °F 82% 30.18 in 6.2 mi NNE 11.5 mph - N/A   Mostly Cloudy
10:00 AM 60.8 °F 53.6 °F 77% 30.18 in 6.2 mi NNE 13.8 mph - N/A   Mostly Cloudy
11:00 AM 62.6 °F 53.6 °F 72% 30.15 in 6.2 mi NNE 10.4 mph - N/A   Mostly Cloudy
12:00 PM 62.6 °F 55.4 °F 77% 30.15 in 6.2 mi North 12.7 mph - N/A   Mostly Cloudy
1:00 PM 64.4 °F 55.4 °F 73% 30.12 in 6.2 mi North 9.2 mph - N/A   Mostly Cloudy
2:00 PM 67 °F 55 °F 56%  in 19 mi North 8.1 mph - -   Overcast
2:00 PM 66.2 °F 53.6 °F 64% 30.12 in 6.2 mi North 6.9 mph - N/A   Partly Cloudy
3:00 PM 66.2 °F 55.4 °F 68% 30.09 in 6.2 mi NNE 8.1 mph - N/A   Scattered Clouds
4:00 PM 66.2 °F 55.4 °F 68% 30.06 in 6.2 mi NNE 8.1 mph - N/A   Scattered Clouds
5:00 PM 67 °F 56 °F 59%  in 19 mi North 8.1 mph - -   Scattered Clouds
5:00 PM 66.2 °F 55.4 °F 68% 30.06 in 6.2 mi North 8.1 mph - N/A   Mostly Cloudy
6:00 PM 66.2 °F 55.4 °F 68% 30.06 in 6.2 mi NNE 6.9 mph - N/A   Scattered Clouds
7:00 PM 64.4 °F 55.4 °F 73% 30.06 in 6.2 mi North 4.6 mph - N/A   Scattered Clouds
8:00 PM 64 °F 56 °F 68%  in 19 mi North 4.6 mph - -   Scattered Clouds
8:00 PM 62.6 °F 55.4 °F 77% 30.06 in 6.2 mi North 3.5 mph - N/A   Scattered Clouds
9:00 PM 62.6 °F 55.4 °F 77% 30.09 in - North 3.5 mph - N/A   Unknown
10:00 PM 60.8 °F 55.4 °F 82% 30.12 in - NNE 3.5 mph - N/A   Unknown
11:00 PM 61 °F 57 °F 84%  in - NNE 4.6 mph - -  
11:00 PM 60.8 °F 57.2 °F 88% 30.12 in - NNE 4.6 mph - N/A   Unknown